Pensacola, FL

1:42 AM CDT on September 20, 2017 (GMT -0500)
Pensacola Regional

Weather History for KPNS - November, 2013

Change the Weather History Date:

Sunday, November 24, 2013

  Actual Average Record
Temperature  
Mean Temperature 50 °F 58 °F  
Max Temperature 57 °F 68 °F 83 °F (1978)
Min Temperature 43 °F 49 °F 26 °F (1970)
Degree Days  
Heating Degree Days 15 8  
Month to date heating degree days 95 122  
Since 1 July heating degree days 110 160  
Cooling Degree Days 0 1  
Month to date cooling degree days 29 40  
Year to date cooling degree days 2718 2590  
Moisture  
Dew Point 28 °F    
Average Humidity 41    
Maximum Humidity 54    
Minimum Humidity 28    
Precipitation  
Precipitation 0.00 in 0.15 in 3.74 in (2000)
Month to date precipitation 2.57 3.79  
Year to date precipitation 68.12 59.78  
Snow  
Snow 0.00 in 0.00 in 0.00 in (2002)
Month to date snowfall 0.0 0.0  
Since 1 July snowfall 0.0 0.0  
Snow Depth 0.00 in    
Sea Level Pressure  
Sea Level Pressure 30.31 in    
Wind  
Wind Speed 11 mph (NNE)    
Max Wind Speed 22 mph    
Max Gust Speed 31 mph    
Visibility 10 miles    
Events      
T = Trace of Precipitation, MM = Missing Value Source: NWS Daily Summary

Daily Weather History Graph

Daily Weather History Graph

Search for Another Location

Airport or City:

Trip Planner

Search our weather history database for the weather conditions in past years. The results will help you decide how hot, cold, wet, or windy it might be!

Date:

Astronomy

Nov. 24, 2013 Rise Set
Actual Time 6:22 AM CST 4:48 PM CST
Civil Twilight 5:56 AM CST 5:14 PM CST
Nautical Twilight 5:27 AM CST 5:43 PM CST
Astronomical Twilight 4:58 AM CST 6:12 PM CST
Moon 11:00 PM CST (11/24) 11:21 AM CST (11/24)
Length of Visible Light 11h 17m
Length of Day
10h 25m
Waning Gibbous, 60% of the Moon is Illuminated
Nov 24
Waning Gibbous
Nov 25
Last Quarter
Dec 2
New
Dec 9
First Quarter
Dec 17
Full

Hourly Weather History & Observations

Time (CST) Temp. Windchill Dew Point Humidity Pressure Visibility Wind Dir Wind Speed Gust Speed Precip Events Conditions
12:53 AM 52.0 °F - 36.0 °F 54% 30.26 in 10.0 mi North 16.1 mph 24.2 mph N/A   Overcast
1:53 AM 51.1 °F - 35.1 °F 54% 30.27 in 10.0 mi North 15.0 mph 21.9 mph N/A   Overcast
2:53 AM 50.0 °F - 33.1 °F 52% 30.27 in 10.0 mi North 11.5 mph 25.3 mph N/A   Overcast
3:53 AM 46.9 °F - 30.0 °F 52% 30.28 in 10.0 mi North 11.5 mph 23.0 mph N/A   Scattered Clouds
4:53 AM 46.0 °F 39.3 °F 28.0 °F 50% 30.30 in 10.0 mi North 16.1 mph 24.2 mph N/A   Clear
5:53 AM 44.1 °F 35.9 °F 26.1 °F 49% 30.30 in 10.0 mi North 19.6 mph 28.8 mph N/A   Clear
6:53 AM 43.0 °F 36.0 °F 26.1 °F 51% 30.33 in 10.0 mi North 13.8 mph 26.5 mph N/A   Clear
7:53 AM 44.1 °F 37.1 °F 26.1 °F 49% 30.34 in 10.0 mi North 15.0 mph 25.3 mph N/A   Clear
8:53 AM 46.9 °F - 25.0 °F 42% 30.35 in 10.0 mi NNE 13.8 mph 24.2 mph N/A   Clear
9:53 AM 48.9 °F - 24.1 °F 38% 30.35 in 10.0 mi NNE 13.8 mph 24.2 mph N/A   Clear
10:53 AM 53.1 °F - 23.0 °F 31% 30.32 in 10.0 mi North 15.0 mph 23.0 mph N/A   Clear
11:53 AM 54.0 °F - 24.1 °F 31% 30.30 in 10.0 mi North 12.7 mph 21.9 mph N/A   Clear
12:53 PM 55.0 °F - 24.1 °F 30% 30.27 in 10.0 mi North 13.8 mph 21.9 mph N/A   Clear
1:53 PM 55.9 °F - 25.0 °F 30% 30.28 in 10.0 mi North 10.4 mph 17.3 mph N/A   Clear
2:53 PM 57.0 °F - 25.0 °F 29% 30.27 in 2.0 mi North 9.2 mph 16.1 mph N/A   Haze
3:00 PM 55.4 °F - 26.6 °F 33% 30.27 in 10.0 mi NE 9.2 mph 16.1 mph N/A   Clear
3:53 PM 55.0 °F - 26.1 °F 33% 30.28 in 10.0 mi NNE 9.2 mph - N/A   Clear
4:53 PM 52.0 °F - 27.0 °F 38% 30.30 in 10.0 mi NNE 5.8 mph - N/A   Clear
5:53 PM 51.1 °F - 28.0 °F 41% 30.32 in 10.0 mi NNE 6.9 mph - N/A   Clear
6:53 PM 50.0 °F - 28.9 °F 44% 30.34 in 10.0 mi NNE 8.1 mph - N/A   Clear
7:53 PM 48.9 °F - 28.0 °F 44% 30.34 in 10.0 mi NE 6.9 mph - N/A   Clear
8:53 PM 48.0 °F - 28.9 °F 48% 30.34 in 10.0 mi NE 6.9 mph - N/A   Clear
9:53 PM 46.9 °F - 28.9 °F 50% 30.33 in 10.0 mi NE 6.9 mph - N/A   Clear
10:53 PM 46.9 °F - 30.0 °F 52% 30.32 in 10.0 mi ENE 6.9 mph - N/A   Clear
11:53 PM 46.0 °F 43.9 °F 30.0 °F 54% 30.32 in 10.0 mi NE 4.6 mph - N/A   Clear